Time,TemperatureF,DewpointF,PressureIn,WindDirection,WindDirectionDegrees,WindSpeedMPH,WindSpeedGustMPH,Humidity,HourlyPrecipIn,Conditions,Clouds,dailyrainin,SolarRadiationWatts/m^2,SoftwareType,DateUTC
2013-06-28 00:01:00,55.8,55.2,29.86,NNE,26,1.0,1.0,98,0.08,,,0.00,0,Wunderground v.1.15,2013-06-28 04:01:00,
2013-06-28 00:02:00,55.8,55.2,29.86,East,86,1.0,1.0,98,0.08,,,0.00,0,Wunderground v.1.15,2013-06-28 04:02:00,
2013-06-28 00:05:00,55.8,55.2,29.86,East,98,1.0,6.0,98,0.07,,,0.00,0,Wunderground v.1.15,2013-06-28 04:05:00,
2013-06-28 00:07:00,55.9,55.3,29.86,ESE,119,1.0,6.0,98,0.05,,,0.00,0,Wunderground v.1.15,2013-06-28 04:07:00,
2013-06-28 00:08:00,55.9,55.3,29.86,South,183,1.0,6.0,98,0.05,,,0.00,0,Wunderground v.1.15,2013-06-28 04:08:00,
2013-06-28 00:13:00,55.9,55.3,29.85,NE,53,2.0,4.0,98,0.05,,,0.01,0,Wunderground v.1.15,2013-06-28 04:13:00,
2013-06-28 00:19:00,55.9,55.3,29.85,ENE,74,2.0,4.0,98,0.07,,,0.02,0,Wunderground v.1.15,2013-06-28 04:19:00,
2013-06-28 00:25:00,56.0,55.4,29.85,ENE,77,1.0,3.0,98,0.07,,,0.02,0,Wunderground v.1.15,2013-06-28 04:25:00,
2013-06-28 00:31:00,56.0,55.4,29.84,ENE,78,1.0,2.0,98,0.05,,,0.03,0,Wunderground v.1.15,2013-06-28 04:31:00,
2013-06-28 00:36:00,56.0,55.4,29.84,South,186,1.0,2.0,98,0.05,,,0.03,0,Wunderground v.1.15,2013-06-28 04:36:00,
2013-06-28 00:42:00,56.1,55.8,29.83,NNE,25,1.0,3.0,99,0.15,,,0.05,0,Wunderground v.1.15,2013-06-28 04:42:00,
2013-06-28 00:48:00,56.2,55.9,29.83,ESE,102,2.0,4.0,99,0.08,,,0.05,0,Wunderground v.1.15,2013-06-28 04:48:00,
2013-06-28 00:54:00,56.2,55.9,29.82,ENE,72,3.0,5.0,99,0.17,,,0.07,0,Wunderground v.1.15,2013-06-28 04:54:00,
2013-06-28 00:59:00,56.3,56.0,29.83,East,98,3.0,5.0,99,0.07,,,0.07,0,Wunderground v.1.15,2013-06-28 04:59:00,
2013-06-28 01:05:00,56.4,56.1,29.82,NE,48,3.0,6.0,99,0.04,,,0.07,0,Wunderground v.1.15,2013-06-28 05:05:00,
2013-06-28 01:11:00,56.4,56.1,29.82,North,351,2.0,2.0,99,0.00,,,0.07,0,Wunderground v.1.15,2013-06-28 05:11:00,
2013-06-28 01:17:00,56.5,56.2,29.82,ESE,117,2.0,4.0,99,0.00,,,0.07,0,Wunderground v.1.15,2013-06-28 05:17:00,
2013-06-28 01:23:00,56.5,56.2,29.83,SSE,148,1.0,2.0,99,0.00,,,0.07,0,Wunderground v.1.15,2013-06-28 05:23:00,
2013-06-28 01:28:00,56.6,56.0,29.83,NE,38,1.0,2.0,98,0.00,,,0.07,0,Wunderground v.1.15,2013-06-28 05:28:00,
2013-06-28 01:33:00,56.6,56.0,29.82,North,5,1.0,1.0,98,0.00,,,0.07,0,Wunderground v.1.15,2013-06-28 05:33:00,
2013-06-28 01:38:00,56.6,56.0,29.82,South,175,1.0,1.0,98,0.00,,,0.07,0,Wunderground v.1.15,2013-06-28 05:38:00,
2013-06-28 01:44:00,56.6,56.0,29.81,ESE,114,1.0,3.0,98,0.00,,,0.07,0,Wunderground v.1.15,2013-06-28 05:44:00,
2013-06-28 01:49:00,56.7,56.1,29.81,SE,126,1.0,3.0,98,0.00,,,0.07,0,Wunderground v.1.15,2013-06-28 05:49:00,
2013-06-28 01:54:00,56.7,56.1,29.81,SE,134,1.0,3.0,98,0.00,,,0.07,0,Wunderground v.1.15,2013-06-28 05:54:00,
2013-06-28 01:59:00,56.7,56.1,29.81,North,5,2.0,3.0,98,0.00,,,0.07,0,Wunderground v.1.15,2013-06-28 05:59:00,
2013-06-28 02:05:00,56.7,56.1,29.81,WSW,251,2.0,3.0,98,0.00,,,0.07,0,Wunderground v.1.15,2013-06-28 06:05:00,
2013-06-28 02:10:00,56.7,56.4,29.81,NNE,13,2.0,2.0,99,0.00,,,0.07,0,Wunderground v.1.15,2013-06-28 06:10:00,
2013-06-28 02:16:00,56.7,56.4,29.81,NNW,348,1.0,3.0,99,0.00,,,0.07,0,Wunderground v.1.15,2013-06-28 06:16:00,
2013-06-28 02:21:00,56.8,56.5,29.81,SSE,166,1.0,2.0,99,0.00,,,0.07,0,Wunderground v.1.15,2013-06-28 06:21:00,
2013-06-28 02:27:00,56.9,56.6,29.82,NE,48,1.0,2.0,99,0.00,,,0.07,0,Wunderground v.1.15,2013-06-28 06:27:00,
2013-06-28 02:32:00,56.9,56.6,29.82,ESE,119,1.0,2.0,99,0.00,,,0.07,0,Wunderground v.1.15,2013-06-28 06:32:00,
2013-06-28 02:38:00,56.9,56.6,29.81,East,89,1.0,8.0,99,0.00,,,0.07,0,Wunderground v.1.15,2013-06-28 06:38:00,
2013-06-28 02:43:00,57.0,56.7,29.81,NE,42,1.0,3.0,99,0.00,,,0.07,0,Wunderground v.1.15,2013-06-28 06:43:00,
2013-06-28 02:48:00,57.0,56.7,29.80,ESE,121,2.0,3.0,99,0.00,,,0.07,0,Wunderground v.1.15,2013-06-28 06:48:00,
2013-06-28 02:53:00,57.0,56.7,29.80,ESE,117,1.0,2.0,99,0.00,,,0.07,0,Wunderground v.1.15,2013-06-28 06:53:00,
2013-06-28 02:59:00,57.0,56.7,29.80,WNW,300,1.0,2.0,99,0.00,,,0.07,0,Wunderground v.1.15,2013-06-28 06:59:00,
2013-06-28 03:05:00,57.0,56.7,29.80,NNW,348,1.0,3.0,99,0.00,,,0.07,0,Wunderground v.1.15,2013-06-28 07:05:00,
2013-06-28 03:10:00,57.1,56.8,29.79,East,95,2.0,2.0,99,0.00,,,0.07,0,Wunderground v.1.15,2013-06-28 07:10:00,
2013-06-28 03:15:00,57.0,56.7,29.79,NE,51,2.0,4.0,99,0.00,,,0.07,0,Wunderground v.1.15,2013-06-28 07:15:00,
2013-06-28 03:21:00,57.0,56.7,29.78,NW,315,2.0,2.0,99,0.00,,,0.07,0,Wunderground v.1.15,2013-06-28 07:21:00,
2013-06-28 03:26:00,57.1,56.8,29.78,NNW,338,2.0,5.0,99,0.00,,,0.07,0,Wunderground v.1.15,2013-06-28 07:26:00,
2013-06-28 03:32:00,57.1,56.8,29.78,North,355,2.0,3.0,99,0.00,,,0.07,0,Wunderground v.1.15,2013-06-28 07:32:00,
2013-06-28 03:38:00,57.1,56.8,29.78,East,86,2.0,9.0,99,0.00,,,0.07,0,Wunderground v.1.15,2013-06-28 07:38:00,
2013-06-28 03:44:00,57.1,56.8,29.77,NE,41,2.0,4.0,99,0.00,,,0.07,0,Wunderground v.1.15,2013-06-28 07:44:00,
2013-06-28 03:49:00,57.2,56.9,29.77,SE,137,2.0,4.0,99,0.00,,,0.07,0,Wunderground v.1.15,2013-06-28 07:49:00,
2013-06-28 03:54:00,57.2,56.9,29.77,NNE,29,2.0,5.0,99,0.00,,,0.07,0,Wunderground v.1.15,2013-06-28 07:54:00,
2013-06-28 03:59:00,57.3,57.0,29.77,ESE,109,2.0,5.0,99,0.00,,,0.07,0,Wunderground v.1.15,2013-06-28 07:59:00,
2013-06-28 04:04:00,57.3,57.0,29.77,East,86,2.0,3.0,99,0.00,,,0.07,0,Wunderground v.1.15,2013-06-28 08:04:00,
2013-06-28 04:09:00,57.3,57.0,29.77,NE,41,2.0,4.0,99,0.00,,,0.07,0,Wunderground v.1.15,2013-06-28 08:09:00,
2013-06-28 04:15:00,57.4,57.1,29.76,East,98,2.0,4.0,99,0.00,,,0.07,0,Wunderground v.1.15,2013-06-28 08:15:00,
2013-06-28 04:21:00,57.5,57.2,29.76,NNE,19,3.0,3.0,99,0.00,,,0.07,0,Wunderground v.1.15,2013-06-28 08:21:00,
2013-06-28 04:27:00,57.5,57.2,29.76,ENE,77,2.0,4.0,99,0.00,,,0.07,0,Wunderground v.1.15,2013-06-28 08:27:00,
2013-06-28 04:33:00,57.5,57.2,29.76,North,5,1.0,1.0,99,0.00,,,0.07,0,Wunderground v.1.15,2013-06-28 08:33:00,
2013-06-28 04:38:00,57.5,57.2,29.76,NE,55,1.0,2.0,99,0.00,,,0.07,0,Wunderground v.1.15,2013-06-28 08:38:00,
2013-06-28 04:43:00,57.5,57.2,29.76,WSW,248,1.0,4.0,99,0.00,,,0.07,0,Wunderground v.1.15,2013-06-28 08:43:00,
2013-06-28 04:48:00,57.6,57.3,29.76,East,81,1.0,4.0,99,0.00,,,0.07,0,Wunderground v.1.15,2013-06-28 08:48:00,
2013-06-28 04:53:00,57.6,57.3,29.76,North,355,0.0,3.0,99,0.00,,,0.07,0,Wunderground v.1.15,2013-06-28 08:53:00,
2013-06-28 04:59:00,57.5,57.2,29.76,SE,125,1.0,4.0,99,0.00,,,0.07,0,Wunderground v.1.15,2013-06-28 08:59:00,
2013-06-28 05:04:00,57.5,57.2,29.75,ENE,71,2.0,4.0,99,0.00,,,0.07,0,Wunderground v.1.15,2013-06-28 09:04:00,
2013-06-28 05:09:00,57.5,57.2,29.75,ENE,57,2.0,4.0,99,0.00,,,0.07,0,Wunderground v.1.15,2013-06-28 09:09:00,
2013-06-28 05:15:00,57.4,57.1,29.76,South,172,2.0,5.0,99,0.00,,,0.07,0,Wunderground v.1.15,2013-06-28 09:15:00,
2013-06-28 05:21:00,57.4,57.1,29.76,SSE,150,2.0,2.0,99,0.00,,,0.07,0,Wunderground v.1.15,2013-06-28 09:21:00,
2013-06-28 05:27:00,57.3,57.0,29.76,East,80,3.0,5.0,99,0.00,,,0.07,0,Wunderground v.1.15,2013-06-28 09:27:00,
2013-06-28 05:32:00,57.2,56.6,29.76,South,173,2.0,3.0,98,0.00,,,0.07,0,Wunderground v.1.15,2013-06-28 09:32:00,
2013-06-28 05:38:00,57.2,56.6,29.76,South,176,1.0,6.0,98,0.00,,,0.07,7,Wunderground v.1.15,2013-06-28 09:38:00,
2013-06-28 05:43:00,57.1,56.5,29.75,SE,142,2.0,2.0,98,0.00,,,0.07,7,Wunderground v.1.15,2013-06-28 09:43:00,
2013-06-28 05:49:00,57.1,56.5,29.75,NE,49,2.0,5.0,98,0.00,,,0.07,9,Wunderground v.1.15,2013-06-28 09:49:00,
2013-06-28 05:54:00,57.1,56.5,29.75,South,182,2.0,3.0,98,0.00,,,0.07,9,Wunderground v.1.15,2013-06-28 09:54:00,
2013-06-28 05:59:00,57.1,56.5,29.75,SSE,149,1.0,6.0,98,0.00,,,0.07,11,Wunderground v.1.15,2013-06-28 09:59:00,
2013-06-28 06:04:00,57.1,56.5,29.75,East,98,2.0,6.0,98,0.00,,,0.07,12,Wunderground v.1.15,2013-06-28 10:04:00,
2013-06-28 06:10:00,57.1,56.5,29.74,NNE,28,2.0,2.0,98,0.00,,,0.07,11,Wunderground v.1.15,2013-06-28 10:10:00,
2013-06-28 06:15:00,57.1,56.5,29.73,ESE,115,2.0,4.0,98,0.00,,,0.07,9,Wunderground v.1.15,2013-06-28 10:15:00,
2013-06-28 06:21:00,57.0,56.4,29.72,SE,137,3.0,4.0,98,0.00,,,0.07,14,Wunderground v.1.15,2013-06-28 10:21:00,
2013-06-28 06:27:00,57.1,56.5,29.72,SE,139,3.0,4.0,98,0.00,,,0.07,16,Wunderground v.1.15,2013-06-28 10:27:00,
2013-06-28 06:32:00,57.1,56.5,29.72,East,88,3.0,4.0,98,0.00,,,0.08,16,Wunderground v.1.15,2013-06-28 10:32:00,
2013-06-28 06:37:00,57.1,56.5,29.72,North,5,2.0,16.0,98,0.00,,,0.08,14,Wunderground v.1.15,2013-06-28 10:37:00,
2013-06-28 06:42:00,57.1,56.5,29.72,East,84,2.0,4.0,98,0.00,,,0.08,16,Wunderground v.1.15,2013-06-28 10:42:00,
2013-06-28 06:48:00,57.2,56.6,29.71,NNE,18,2.0,4.0,98,0.00,,,0.08,28,Wunderground v.1.15,2013-06-28 10:48:00,
2013-06-28 06:53:00,57.2,56.6,29.71,ENE,57,2.0,6.0,98,0.00,,,0.08,21,Wunderground v.1.15,2013-06-28 10:53:00,
2013-06-28 06:58:00,57.2,56.6,29.72,ESE,107,3.0,6.0,98,0.00,,,0.08,12,Wunderground v.1.15,2013-06-28 10:58:00,
2013-06-28 07:03:00,57.2,56.6,29.72,NNE,22,2.0,3.0,98,0.00,,,0.08,11,Wunderground v.1.15,2013-06-28 11:03:00,
2013-06-28 07:09:00,57.1,56.5,29.71,NNW,337,3.0,12.0,98,0.00,,,0.08,26,Wunderground v.1.15,2013-06-28 11:09:00,
2013-06-28 07:15:00,57.1,56.5,29.72,WNW,294,3.0,8.0,98,0.00,,,0.08,25,Wunderground v.1.15,2013-06-28 11:15:00,
2013-06-28 07:20:00,57.2,56.6,29.72,ESE,114,2.0,4.0,98,0.00,,,0.08,28,Wunderground v.1.15,2013-06-28 11:20:00,
2013-06-28 07:25:00,57.1,56.5,29.71,SW,219,2.0,11.0,98,0.00,,,0.08,26,Wunderground v.1.15,2013-06-28 11:25:00,
2013-06-28 07:30:00,57.1,56.5,29.72,SSW,207,2.0,2.0,98,0.00,,,0.08,19,Wunderground v.1.15,2013-06-28 11:30:00,
2013-06-28 07:35:00,57.1,56.5,29.74,SSW,203,2.0,2.0,98,0.00,,,0.08,9,Wunderground v.1.15,2013-06-28 11:35:00,
2013-06-28 07:40:00,57.1,56.5,29.73,North,5,2.0,2.0,98,1.45,,,0.11,23,Wunderground v.1.15,2013-06-28 11:40:00,
2013-06-28 07:46:00,57.0,56.4,29.72,East,96,1.0,2.0,98,0.93,,,0.16,51,Wunderground v.1.15,2013-06-28 11:46:00,
2013-06-28 07:51:00,57.0,56.7,29.72,East,84,2.0,2.0,99,0.13,,,0.17,28,Wunderground v.1.15,2013-06-28 11:51:00,
2013-06-28 07:57:00,56.9,56.6,29.72,North,10,3.0,6.0,99,0.19,,,0.20,40,Wunderground v.1.15,2013-06-28 11:57:00,
2013-06-28 08:02:00,56.9,56.6,29.72,ESE,108,4.0,4.0,99,0.08,,,0.21,28,Wunderground v.1.15,2013-06-28 12:02:00,
2013-06-28 08:07:00,56.9,56.6,29.72,ESE,104,4.0,5.0,99,0.08,,,0.21,12,Wunderground v.1.15,2013-06-28 12:07:00,
2013-06-28 08:12:00,56.9,56.6,29.72,SE,132,3.0,3.0,99,0.06,,,0.21,14,Wunderground v.1.15,2013-06-28 12:12:00,
2013-06-28 08:17:00,57.0,56.7,29.73,ESE,117,2.0,4.0,99,0.82,,,0.26,21,Wunderground v.1.15,2013-06-28 12:17:00,
2013-06-28 08:22:00,56.9,56.6,29.73,ESE,112,2.0,3.0,99,0.30,,,0.30,14,Wunderground v.1.15,2013-06-28 12:22:00,
2013-06-28 08:27:00,56.9,56.6,29.72,North,9,1.0,3.0,99,0.37,,,0.36,39,Wunderground v.1.15,2013-06-28 12:27:00,
2013-06-28 08:32:00,56.8,56.5,29.72,ENE,76,2.0,3.0,99,0.10,,,0.36,39,Wunderground v.1.15,2013-06-28 12:32:00,
2013-06-28 08:38:00,56.7,56.4,29.70,SE,135,3.0,6.0,99,0.05,,,0.36,107,Wunderground v.1.15,2013-06-28 12:38:00,
2013-06-28 08:44:00,56.7,56.4,29.70,East,86,3.0,4.0,99,0.00,,,0.36,51,Wunderground v.1.15,2013-06-28 12:44:00,
2013-06-28 08:49:00,56.6,56.0,29.70,East,82,3.0,10.0,98,0.00,,,0.37,69,Wunderground v.1.15,2013-06-28 12:49:00,
2013-06-28 08:54:00,56.6,56.0,29.69,East,94,3.0,6.0,98,0.31,,,0.39,58,Wunderground v.1.15,2013-06-28 12:54:00,
2013-06-28 08:59:00,56.5,55.9,29.69,SE,135,3.0,6.0,98,0.09,,,0.39,83,Wunderground v.1.15,2013-06-28 12:59:00,
2013-06-28 09:05:00,56.5,56.2,29.69,South,180,3.0,5.0,99,0.12,,,0.41,42,Wunderground v.1.15,2013-06-28 13:05:00,
2013-06-28 09:11:00,56.4,56.1,29.69,ENE,69,3.0,7.0,99,0.39,,,0.43,39,Wunderground v.1.15,2013-06-28 13:11:00,
2013-06-28 09:16:00,56.3,56.0,29.68,ESE,107,2.0,7.0,99,0.09,,,0.43,56,Wunderground v.1.15,2013-06-28 13:16:00,
2013-06-28 09:21:00,56.3,56.0,29.68,ENE,71,2.0,3.0,99,0.06,,,0.44,111,Wunderground v.1.15,2013-06-28 13:21:00,
2013-06-28 09:27:00,56.4,56.1,29.67,East,82,2.0,7.0,99,0.06,,,0.44,142,Wunderground v.1.15,2013-06-28 13:27:00,
2013-06-28 09:32:00,56.4,56.1,29.67,NE,41,2.0,5.0,99,0.05,,,0.44,121,Wunderground v.1.15,2013-06-28 13:32:00,
2013-06-28 09:37:00,56.4,56.1,29.67,ENE,68,3.0,5.0,99,0.00,,,0.44,74,Wunderground v.1.15,2013-06-28 13:37:00,
2013-06-28 09:42:00,56.4,56.1,29.67,NNW,342,2.0,3.0,99,0.00,,,0.44,56,Wunderground v.1.15,2013-06-28 13:42:00,
2013-06-28 09:47:00,56.3,56.0,29.67,SE,126,2.0,3.0,99,0.00,,,0.45,91,Wunderground v.1.15,2013-06-28 13:47:00,
2013-06-28 09:53:00,56.3,56.0,29.66,East,86,2.0,4.0,99,0.00,,,0.45,60,Wunderground v.1.15,2013-06-28 13:53:00,
2013-06-28 09:58:00,56.2,55.9,29.66,NE,52,3.0,11.0,99,0.06,,,0.46,47,Wunderground v.1.15,2013-06-28 13:58:00,
2013-06-28 10:04:00,56.1,55.8,29.67,East,80,3.0,8.0,99,0.09,,,0.47,37,Wunderground v.1.15,2013-06-28 14:04:00,
2013-06-28 10:10:00,56.0,55.4,29.67,East,97,3.0,3.0,98,2.15,,,0.63,26,Wunderground v.1.15,2013-06-28 14:10:00,
2013-06-28 10:15:00,55.9,55.6,29.67,ENE,59,3.0,5.0,99,2.22,,,0.69,25,Wunderground v.1.15,2013-06-28 14:15:00,
2013-06-28 10:20:00,55.9,55.6,29.65,NE,38,3.0,3.0,99,0.42,,,0.84,21,Wunderground v.1.15,2013-06-28 14:20:00,
2013-06-28 10:26:00,55.8,55.5,29.65,West,261,3.0,5.0,99,0.12,,,0.85,18,Wunderground v.1.15,2013-06-28 14:26:00,
2013-06-28 10:31:00,56.0,55.7,29.65,NE,36,3.0,6.0,99,0.10,,,0.86,25,Wunderground v.1.15,2013-06-28 14:31:00,
2013-06-28 10:37:00,56.0,55.7,29.64,ENE,77,3.0,8.0,99,0.12,,,0.88,30,Wunderground v.1.15,2013-06-28 14:37:00,
2013-06-28 10:42:00,56.2,55.9,29.64,ENE,61,3.0,5.0,99,0.11,,,0.88,54,Wunderground v.1.15,2013-06-28 14:42:00,
2013-06-28 10:48:00,56.3,56.0,29.64,SW,215,3.0,5.0,99,0.10,,,0.89,70,Wunderground v.1.15,2013-06-28 14:48:00,
2013-06-28 10:53:00,56.4,56.1,29.64,WNW,296,2.0,3.0,99,0.06,,,0.89,62,Wunderground v.1.15,2013-06-28 14:53:00,
2013-06-28 10:58:00,56.6,56.3,29.66,SSW,201,2.0,3.0,99,0.04,,,0.89,56,Wunderground v.1.15,2013-06-28 14:58:00,
2013-06-28 11:03:00,56.6,56.3,29.65,ENE,68,3.0,3.0,99,0.49,,,1.00,60,Wunderground v.1.15,2013-06-28 15:03:00,
2013-06-28 11:08:00,56.6,56.3,29.64,East,94,2.0,6.0,99,0.32,,,1.05,51,Wunderground v.1.15,2013-06-28 15:08:00,
2013-06-28 11:14:00,56.6,56.3,29.64,WNW,299,1.0,4.0,99,0.10,,,1.06,28,Wunderground v.1.15,2013-06-28 15:14:00,
2013-06-28 11:20:00,56.6,56.3,29.65,ENE,63,1.0,2.0,99,0.52,,,1.08,30,Wunderground v.1.15,2013-06-28 15:20:00,
2013-06-28 11:25:00,56.6,56.3,29.64,NE,53,1.0,3.0,99,0.12,,,1.09,42,Wunderground v.1.15,2013-06-28 15:25:00,
2013-06-28 11:30:00,56.7,56.4,29.63,ENE,75,1.0,1.0,99,0.07,,,1.10,33,Wunderground v.1.15,2013-06-28 15:30:00,
2013-06-28 11:36:00,56.8,56.5,29.63,East,87,1.0,3.0,99,0.07,,,1.10,37,Wunderground v.1.15,2013-06-28 15:36:00,
2013-06-28 11:41:00,57.1,56.8,29.63,ENE,72,1.0,1.0,99,0.05,,,1.10,95,Wunderground v.1.15,2013-06-28 15:41:00,
2013-06-28 11:47:00,57.6,57.3,29.63,North,360,1.0,3.0,99,0.00,,,1.10,62,Wunderground v.1.15,2013-06-28 15:47:00,
2013-06-28 11:53:00,57.8,57.5,29.63,SE,126,1.0,2.0,99,0.00,,,1.10,77,Wunderground v.1.15,2013-06-28 15:53:00,
2013-06-28 11:58:00,58.0,57.7,29.63,North,355,1.0,3.0,99,0.00,,,1.10,74,Wunderground v.1.15,2013-06-28 15:58:00,
2013-06-28 12:03:00,58.0,57.7,29.62,NNE,31,1.0,3.0,99,0.00,,,1.10,90,Wunderground v.1.15,2013-06-28 16:03:00,
2013-06-28 12:09:00,58.1,57.8,29.62,SE,135,2.0,4.0,99,0.00,,,1.10,104,Wunderground v.1.15,2013-06-28 16:09:00,
2013-06-28 12:14:00,58.3,58.0,29.63,NE,55,2.0,2.0,99,0.00,,,1.10,98,Wunderground v.1.15,2013-06-28 16:14:00,
2013-06-28 12:19:00,58.4,58.1,29.62,SE,142,2.0,3.0,99,0.00,,,1.10,77,Wunderground v.1.15,2013-06-28 16:19:00,
2013-06-28 12:24:00,58.5,58.2,29.63,ENE,78,2.0,3.0,99,0.00,,,1.10,93,Wunderground v.1.15,2013-06-28 16:24:00,
2013-06-28 12:30:00,58.6,58.3,29.62,NE,50,2.0,2.0,99,0.00,,,1.10,84,Wunderground v.1.15,2013-06-28 16:30:00,
2013-06-28 12:35:00,58.7,58.4,29.63,ESE,103,2.0,2.0,99,0.00,,,1.10,44,Wunderground v.1.15,2013-06-28 16:35:00,
2013-06-28 12:40:00,58.9,58.9,29.62,ESE,110,1.0,1.0,100,0.00,,,1.10,32,Wunderground v.1.15,2013-06-28 16:40:00,
2013-06-28 12:45:00,58.9,58.9,29.61,ENE,72,2.0,3.0,100,0.00,,,1.10,42,Wunderground v.1.15,2013-06-28 16:45:00,
2013-06-28 12:51:00,58.9,58.9,29.61,ESE,121,2.0,4.0,100,0.00,,,1.10,42,Wunderground v.1.15,2013-06-28 16:51:00,
2013-06-28 12:56:00,59.0,59.0,29.61,ENE,73,2.0,5.0,100,0.00,,,1.11,35,Wunderground v.1.15,2013-06-28 16:56:00,
2013-06-28 13:01:00,59.0,59.0,29.61,ESE,113,2.0,2.0,100,0.00,,,1.11,70,Wunderground v.1.15,2013-06-28 17:01:00,
2013-06-28 13:06:00,59.1,59.1,29.61,ENE,74,1.0,2.0,100,0.00,,,1.11,74,Wunderground v.1.15,2013-06-28 17:06:00,
2013-06-28 13:11:00,58.9,58.6,29.60,SE,143,1.0,1.0,99,0.00,,,1.12,58,Wunderground v.1.15,2013-06-28 17:11:00,
2013-06-28 13:17:00,58.7,58.4,29.60,ENE,78,1.0,1.0,99,0.00,,,1.12,56,Wunderground v.1.15,2013-06-28 17:17:00,
2013-06-28 13:22:00,58.6,58.3,29.60,NE,42,1.0,7.0,99,0.00,,,1.12,60,Wunderground v.1.15,2013-06-28 17:22:00,
2013-06-28 13:27:00,58.6,58.3,29.60,ENE,57,1.0,7.0,99,0.00,,,1.12,65,Wunderground v.1.15,2013-06-28 17:27:00,
2013-06-28 13:33:00,58.7,58.4,29.61,ESE,102,1.0,1.0,99,0.00,,,1.12,56,Wunderground v.1.15,2013-06-28 17:33:00,
2013-06-28 13:38:00,58.8,58.8,29.61,ENE,60,1.0,1.0,100,0.00,,,1.12,72,Wunderground v.1.15,2013-06-28 17:38:00,
2013-06-28 13:44:00,58.9,58.9,29.60,SSE,160,1.0,2.0,100,0.00,,,1.12,97,Wunderground v.1.15,2013-06-28 17:44:00,
2013-06-28 13:50:00,59.2,59.2,29.60,SSE,148,1.0,1.0,100,0.00,,,1.12,137,Wunderground v.1.15,2013-06-28 17:50:00,
2013-06-28 13:55:00,59.5,59.5,29.60,East,100,1.0,5.0,100,0.00,,,1.12,137,Wunderground v.1.15,2013-06-28 17:55:00,
2013-06-28 14:01:00,59.8,59.8,29.60,SSE,161,1.0,1.0,100,0.00,,,1.12,158,Wunderground v.1.15,2013-06-28 18:01:00,
2013-06-28 14:06:00,60.2,60.2,29.60,East,87,0.0,3.0,100,0.00,,,1.12,125,Wunderground v.1.15,2013-06-28 18:06:00,
2013-06-28 14:11:00,60.4,60.4,29.60,ENE,61,0.0,5.0,100,0.00,,,1.12,141,Wunderground v.1.15,2013-06-28 18:11:00,
2013-06-28 14:16:00,60.7,60.7,29.60,ENE,67,1.0,5.0,100,0.00,,,1.12,142,Wunderground v.1.15,2013-06-28 18:16:00,
2013-06-28 14:21:00,60.9,60.9,29.60,SSW,196,1.0,3.0,100,0.00,,,1.13,167,Wunderground v.1.15,2013-06-28 18:21:00,
2013-06-28 14:27:00,61.3,61.3,29.60,SSE,167,0.0,3.0,100,0.00,,,1.13,151,Wunderground v.1.15,2013-06-28 18:27:00,
2013-06-28 14:33:00,61.5,61.5,29.60,SSW,192,1.0,1.0,100,0.00,,,1.13,135,Wunderground v.1.15,2013-06-28 18:33:00,
2013-06-28 14:38:00,61.7,61.7,29.59,ESE,121,2.0,3.0,100,0.00,,,1.13,199,Wunderground v.1.15,2013-06-28 18:38:00,
2013-06-28 14:44:00,62.1,62.1,29.59,SSE,156,2.0,5.0,100,0.00,,,1.13,167,Wunderground v.1.15,2013-06-28 18:44:00,
2013-06-28 14:49:00,62.3,62.3,29.59,East,81,2.0,5.0,100,0.00,,,1.13,171,Wunderground v.1.15,2013-06-28 18:49:00,
2013-06-28 14:54:00,62.7,62.7,29.58,South,170,1.0,2.0,100,0.00,,,1.13,151,Wunderground v.1.15,2013-06-28 18:54:00,
2013-06-28 14:59:00,63.1,63.1,29.59,SSE,168,0.0,2.0,100,0.00,,,1.13,125,Wunderground v.1.15,2013-06-28 18:59:00,
2013-06-28 15:04:00,63.2,63.2,29.58,SE,146,1.0,5.0,100,0.00,,,1.13,186,Wunderground v.1.15,2013-06-28 19:04:00,
2013-06-28 15:10:00,63.4,63.4,29.58,SSE,163,3.0,3.0,100,0.00,,,1.14,172,Wunderground v.1.15,2013-06-28 19:10:00,
2013-06-28 15:15:00,63.7,63.7,29.58,East,92,3.0,3.0,100,0.00,,,1.14,171,Wunderground v.1.15,2013-06-28 19:15:00,
2013-06-28 15:21:00,63.9,63.9,29.58,SSE,167,3.0,6.0,100,0.00,,,1.14,144,Wunderground v.1.15,2013-06-28 19:21:00,
2013-06-28 15:26:00,64.1,64.1,29.58,SSE,156,4.0,6.0,100,0.00,,,1.14,171,Wunderground v.1.15,2013-06-28 19:26:00,
2013-06-28 15:31:00,64.2,64.2,29.57,SSE,150,4.0,4.0,100,0.00,,,1.14,123,Wunderground v.1.15,2013-06-28 19:31:00,
2013-06-28 15:36:00,64.3,64.3,29.57,South,171,4.0,5.0,100,0.00,,,1.14,146,Wunderground v.1.15,2013-06-28 19:36:00,
2013-06-28 15:41:00,64.3,64.3,29.57,SSE,155,3.0,3.0,100,0.00,,,1.14,148,Wunderground v.1.15,2013-06-28 19:41:00,
2013-06-28 15:46:00,64.4,64.4,29.57,SSE,148,2.0,5.0,100,0.00,,,1.14,97,Wunderground v.1.15,2013-06-28 19:46:00,
2013-06-28 15:52:00,64.4,64.4,29.57,SE,144,2.0,7.0,100,0.00,,,1.14,69,Wunderground v.1.15,2013-06-28 19:52:00,
2013-06-28 15:57:00,64.4,64.4,29.57,South,177,2.0,7.0,100,0.00,,,1.14,63,Wunderground v.1.15,2013-06-28 19:57:00,
2013-06-28 16:03:00,64.4,64.4,29.56,SSE,160,2.0,3.0,100,0.00,,,1.14,118,Wunderground v.1.15,2013-06-28 20:03:00,
2013-06-28 16:08:00,64.5,64.5,29.57,SE,146,2.0,4.0,100,0.00,,,1.14,69,Wunderground v.1.15,2013-06-28 20:08:00,
2013-06-28 16:13:00,64.6,64.6,29.57,SSE,160,3.0,5.0,100,0.00,,,1.14,62,Wunderground v.1.15,2013-06-28 20:13:00,
2013-06-28 16:19:00,64.6,64.6,29.57,SSE,168,3.0,5.0,100,0.00,,,1.14,46,Wunderground v.1.15,2013-06-28 20:19:00,
2013-06-28 16:25:00,64.6,64.6,29.57,South,178,3.0,3.0,100,0.00,,,1.14,46,Wunderground v.1.15,2013-06-28 20:25:00,
2013-06-28 16:30:00,64.5,64.5,29.58,SE,142,2.0,4.0,100,0.00,,,1.14,62,Wunderground v.1.15,2013-06-28 20:30:00,
2013-06-28 16:36:00,64.3,64.3,29.57,South,175,3.0,7.0,100,0.00,,,1.14,63,Wunderground v.1.15,2013-06-28 20:36:00,
2013-06-28 16:42:00,64.2,64.2,29.57,SSE,149,3.0,5.0,100,0.00,,,1.14,53,Wunderground v.1.15,2013-06-28 20:42:00,
2013-06-28 16:47:00,64.1,64.1,29.57,ESE,112,3.0,5.0,100,0.00,,,1.15,40,Wunderground v.1.15,2013-06-28 20:47:00,
2013-06-28 16:52:00,64.0,64.0,29.58,South,171,3.0,7.0,100,0.00,,,1.15,37,Wunderground v.1.15,2013-06-28 20:52:00,
2013-06-28 16:58:00,64.0,64.0,29.58,ESE,109,3.0,7.0,100,0.00,,,1.15,42,Wunderground v.1.15,2013-06-28 20:58:00,
2013-06-28 17:03:00,63.9,63.9,29.58,South,189,3.0,6.0,100,0.00,,,1.15,49,Wunderground v.1.15,2013-06-28 21:03:00,
2013-06-28 17:09:00,63.9,63.9,29.58,South,186,3.0,7.0,100,0.00,,,1.15,51,Wunderground v.1.15,2013-06-28 21:09:00,
2013-06-28 17:15:00,63.8,63.8,29.58,South,178,3.0,4.0,100,0.00,,,1.15,49,Wunderground v.1.15,2013-06-28 21:15:00,
2013-06-28 17:20:00,63.7,63.7,29.57,South,175,3.0,7.0,100,0.00,,,1.15,46,Wunderground v.1.15,2013-06-28 21:20:00,
2013-06-28 17:25:00,63.6,63.6,29.57,SSW,202,4.0,7.0,100,0.00,,,1.15,53,Wunderground v.1.15,2013-06-28 21:25:00,
2013-06-28 17:30:00,63.6,63.6,29.57,South,180,5.0,7.0,100,0.00,,,1.15,56,Wunderground v.1.15,2013-06-28 21:30:00,
2013-06-28 17:35:00,63.6,63.6,29.57,SSE,155,4.0,7.0,100,0.00,,,1.15,56,Wunderground v.1.15,2013-06-28 21:35:00,
2013-06-28 17:40:00,63.6,63.6,29.56,South,173,4.0,4.0,100,0.00,,,1.15,56,Wunderground v.1.15,2013-06-28 21:40:00,
2013-06-28 17:46:00,63.5,63.5,29.56,South,172,5.0,8.0,100,0.00,,,1.15,44,Wunderground v.1.15,2013-06-28 21:46:00,
2013-06-28 17:51:00,63.5,63.5,29.56,SSW,193,4.0,4.0,100,0.00,,,1.15,53,Wunderground v.1.15,2013-06-28 21:51:00,
2013-06-28 17:56:00,63.4,63.4,29.56,South,175,4.0,8.0,100,0.00,,,1.15,60,Wunderground v.1.15,2013-06-28 21:56:00,
2013-06-28 18:02:00,63.4,63.4,29.57,SE,142,4.0,4.0,100,0.00,,,1.15,42,Wunderground v.1.15,2013-06-28 22:02:00,
2013-06-28 18:07:00,63.4,63.4,29.57,South,172,3.0,4.0,100,0.00,,,1.15,32,Wunderground v.1.15,2013-06-28 22:07:00,
2013-06-28 18:13:00,63.3,63.3,29.57,SSE,159,2.0,2.0,100,0.00,,,1.15,23,Wunderground v.1.15,2013-06-28 22:13:00,
2013-06-28 18:19:00,63.3,63.3,29.57,South,186,2.0,4.0,100,0.00,,,1.15,26,Wunderground v.1.15,2013-06-28 22:19:00,
2013-06-28 18:25:00,63.3,63.3,29.57,SSW,192,2.0,5.0,100,0.00,,,1.15,21,Wunderground v.1.15,2013-06-28 22:25:00,
2013-06-28 18:30:00,63.2,63.2,29.57,South,174,3.0,3.0,100,0.00,,,1.15,16,Wunderground v.1.15,2013-06-28 22:30:00,
2013-06-28 18:35:00,63.1,63.1,29.57,SSE,156,3.0,3.0,100,0.00,,,1.15,12,Wunderground v.1.15,2013-06-28 22:35:00,
2013-06-28 18:40:00,63.1,63.1,29.57,SSE,167,2.0,2.0,100,0.00,,,1.15,18,Wunderground v.1.15,2013-06-28 22:40:00,
2013-06-28 18:45:00,63.1,63.1,29.57,South,179,2.0,4.0,100,0.00,,,1.15,19,Wunderground v.1.15,2013-06-28 22:45:00,
2013-06-28 18:50:00,63.0,63.0,29.57,SSW,192,2.0,2.0,100,0.00,,,1.15,16,Wunderground v.1.15,2013-06-28 22:50:00,
2013-06-28 18:55:00,62.9,62.9,29.57,SSE,167,2.0,3.0,100,0.00,,,1.15,16,Wunderground v.1.15,2013-06-28 22:55:00,
2013-06-28 19:01:00,62.8,62.8,29.57,SSW,192,1.0,2.0,100,0.00,,,1.15,11,Wunderground v.1.15,2013-06-28 23:01:00,
2013-06-28 19:06:00,62.8,62.8,29.57,SE,144,1.0,3.0,100,0.00,,,1.15,7,Wunderground v.1.15,2013-06-28 23:06:00,
2013-06-28 19:11:00,62.8,62.8,29.57,South,172,1.0,1.0,100,0.00,,,1.15,7,Wunderground v.1.15,2013-06-28 23:11:00,
2013-06-28 19:17:00,62.8,62.8,29.57,South,188,0.0,1.0,100,0.00,,,1.15,7,Wunderground v.1.15,2013-06-28 23:17:00,
2013-06-28 19:23:00,62.8,62.8,29.57,SSE,155,1.0,4.0,100,0.00,,,1.15,11,Wunderground v.1.15,2013-06-28 23:23:00,
2013-06-28 19:29:00,62.7,62.7,29.58,South,179,1.0,4.0,100,0.00,,,1.15,5,Wunderground v.1.15,2013-06-28 23:29:00,
2013-06-28 19:35:00,62.7,62.7,29.58,ESE,121,1.0,2.0,100,0.00,,,1.15,5,Wunderground v.1.15,2013-06-28 23:35:00,
2013-06-28 19:41:00,62.7,62.7,29.58,SSE,161,1.0,2.0,100,0.00,,,1.15,5,Wunderground v.1.15,2013-06-28 23:41:00,
2013-06-28 19:46:00,62.7,62.7,29.58,South,172,1.0,3.0,100,0.00,,,1.15,5,Wunderground v.1.15,2013-06-28 23:46:00,
2013-06-28 19:51:00,62.7,62.7,29.57,South,189,1.0,1.0,100,0.00,,,1.15,0,Wunderground v.1.15,2013-06-28 23:51:00,
2013-06-28 19:56:00,62.7,62.7,29.57,South,178,1.0,5.0,100,0.00,,,1.16,0,Wunderground v.1.15,2013-06-28 23:56:00,
2013-06-28 20:02:00,62.7,62.7,29.57,SSE,149,2.0,3.0,100,0.00,,,1.16,0,Wunderground v.1.15,2013-06-29 00:02:00,
2013-06-28 20:07:00,62.8,62.8,29.57,SE,142,2.0,4.0,100,0.00,,,1.16,0,Wunderground v.1.15,2013-06-29 00:07:00,
2013-06-28 20:13:00,62.8,62.8,29.57,SE,142,3.0,4.0,100,0.00,,,1.16,0,Wunderground v.1.15,2013-06-29 00:13:00,
2013-06-28 20:19:00,62.9,62.9,29.57,SSE,158,3.0,5.0,100,0.00,,,1.16,0,Wunderground v.1.15,2013-06-29 00:19:00,
2013-06-28 20:24:00,62.9,62.9,29.57,South,189,3.0,5.0,100,0.00,,,1.16,0,Wunderground v.1.15,2013-06-29 00:24:00,
2013-06-28 20:29:00,62.9,62.9,29.57,South,174,2.0,7.0,100,0.00,,,1.16,0,Wunderground v.1.15,2013-06-29 00:29:00,
2013-06-28 20:34:00,63.0,63.0,29.57,SSE,168,3.0,8.0,100,0.00,,,1.16,0,Wunderground v.1.15,2013-06-29 00:34:00,
2013-06-28 20:39:00,63.0,63.0,29.57,SSE,160,4.0,8.0,100,0.00,,,1.16,0,Wunderground v.1.15,2013-06-29 00:39:00,
2013-06-28 20:44:00,63.0,63.0,29.58,South,185,3.0,5.0,100,0.00,,,1.16,0,Wunderground v.1.15,2013-06-29 00:44:00,
2013-06-28 20:50:00,63.0,63.0,29.58,SE,145,3.0,3.0,100,0.00,,,1.16,0,Wunderground v.1.15,2013-06-29 00:50:00,
2013-06-28 20:55:00,63.0,63.0,29.58,SSE,150,4.0,5.0,100,0.00,,,1.16,0,Wunderground v.1.15,2013-06-29 00:55:00,
2013-06-28 21:00:00,63.0,63.0,29.58,South,188,4.0,4.0,100,0.00,,,1.16,0,Wunderground v.1.15,2013-06-29 01:00:00,
2013-06-28 21:06:00,63.0,63.0,29.59,SE,138,3.0,4.0,100,0.00,,,1.16,0,Wunderground v.1.15,2013-06-29 01:06:00,
2013-06-28 21:12:00,62.9,62.9,29.59,SE,144,3.0,7.0,100,0.00,,,1.16,0,Wunderground v.1.15,2013-06-29 01:12:00,
2013-06-28 21:18:00,62.8,62.8,29.59,South,171,4.0,7.0,100,0.00,,,1.16,0,Wunderground v.1.15,2013-06-29 01:18:00,
2013-06-28 21:23:00,62.7,62.7,29.59,ESE,119,3.0,5.0,100,0.00,,,1.16,0,Wunderground v.1.15,2013-06-29 01:23:00,
2013-06-28 21:28:00,62.7,62.7,29.59,South,176,3.0,5.0,100,0.00,,,1.16,0,Wunderground v.1.15,2013-06-29 01:28:00,
2013-06-28 21:33:00,62.6,62.6,29.59,SSE,150,3.0,6.0,100,0.00,,,1.16,0,Wunderground v.1.15,2013-06-29 01:33:00,
2013-06-28 21:38:00,62.5,62.5,29.59,South,172,2.0,6.0,100,0.00,,,1.16,0,Wunderground v.1.15,2013-06-29 01:38:00,
2013-06-28 21:44:00,62.5,62.5,29.59,SSE,167,2.0,3.0,100,0.00,,,1.16,0,Wunderground v.1.15,2013-06-29 01:44:00,
2013-06-28 21:49:00,62.5,62.5,29.60,South,175,1.0,4.0,100,0.00,,,1.16,0,Wunderground v.1.15,2013-06-29 01:49:00,
2013-06-28 21:55:00,62.5,62.5,29.59,SSW,194,2.0,6.0,100,0.00,,,1.16,0,Wunderground v.1.15,2013-06-29 01:55:00,
2013-06-28 22:00:00,62.5,62.5,29.59,South,169,2.0,4.0,100,0.00,,,1.16,0,Wunderground v.1.15,2013-06-29 02:00:00,
2013-06-28 22:05:00,62.4,62.4,29.59,South,185,3.0,5.0,100,0.00,,,1.16,0,Wunderground v.1.15,2013-06-29 02:05:00,
2013-06-28 22:10:00,62.4,62.4,29.59,SE,137,3.0,3.0,100,0.00,,,1.16,0,Wunderground v.1.15,2013-06-29 02:10:00,
2013-06-28 22:16:00,62.4,62.4,29.59,East,87,3.0,5.0,100,0.00,,,1.16,0,Wunderground v.1.15,2013-06-29 02:16:00,
2013-06-28 22:21:00,62.4,62.4,29.59,SSE,163,4.0,5.0,100,0.00,,,1.16,0,Wunderground v.1.15,2013-06-29 02:21:00,
2013-06-28 22:26:00,62.3,62.3,29.59,South,177,3.0,6.0,100,0.00,,,1.16,0,Wunderground v.1.15,2013-06-29 02:26:00,
2013-06-28 22:32:00,62.3,62.3,29.59,South,190,4.0,4.0,100,0.00,,,1.16,0,Wunderground v.1.15,2013-06-29 02:32:00,
2013-06-28 22:37:00,62.3,62.3,29.59,South,171,3.0,4.0,100,0.00,,,1.16,0,Wunderground v.1.15,2013-06-29 02:37:00,
2013-06-28 22:43:00,62.3,62.3,29.59,SSE,158,4.0,8.0,100,0.00,,,1.16,0,Wunderground v.1.15,2013-06-29 02:43:00,
2013-06-28 22:49:00,62.3,62.3,29.58,South,183,4.0,8.0,100,0.00,,,1.16,0,Wunderground v.1.15,2013-06-29 02:49:00,
2013-06-28 22:54:00,62.2,62.2,29.58,SSW,213,4.0,5.0,100,0.00,,,1.16,0,Wunderground v.1.15,2013-06-29 02:54:00,
2013-06-28 22:59:00,62.2,62.2,29.58,SSW,201,3.0,5.0,100,0.00,,,1.16,0,Wunderground v.1.15,2013-06-29 02:59:00,
2013-06-28 23:04:00,62.2,62.2,29.58,South,186,3.0,5.0,100,0.00,,,1.16,0,Wunderground v.1.15,2013-06-29 03:04:00,
2013-06-28 23:09:00,62.2,62.2,29.58,SSW,207,3.0,5.0,100,0.00,,,1.16,0,Wunderground v.1.15,2013-06-29 03:09:00,
2013-06-28 23:14:00,62.2,62.2,29.58,SSW,195,3.0,5.0,100,0.00,,,1.16,0,Wunderground v.1.15,2013-06-29 03:14:00,
2013-06-28 23:20:00,62.2,62.2,29.58,SSE,165,4.0,4.0,100,0.00,,,1.16,0,Wunderground v.1.15,2013-06-29 03:20:00,
2013-06-28 23:26:00,62.2,62.2,29.58,SSW,196,4.0,4.0,100,0.00,,,1.16,0,Wunderground v.1.15,2013-06-29 03:26:00,
2013-06-28 23:31:00,62.1,62.1,29.58,SE,146,3.0,5.0,100,0.00,,,1.16,0,Wunderground v.1.15,2013-06-29 03:31:00,
2013-06-28 23:36:00,62.1,62.1,29.58,SE,128,3.0,6.0,100,0.00,,,1.16,0,Wunderground v.1.15,2013-06-29 03:36:00,
2013-06-28 23:41:00,62.0,62.0,29.58,SW,219,3.0,3.0,100,0.00,,,1.16,0,Wunderground v.1.15,2013-06-29 03:41:00,
2013-06-28 23:46:00,61.9,61.9,29.58,South,187,3.0,7.0,100,0.00,,,1.16,0,Wunderground v.1.15,2013-06-29 03:46:00,
2013-06-28 23:51:00,61.9,61.9,29.58,SSE,159,3.0,5.0,100,0.00,,,1.16,0,Wunderground v.1.15,2013-06-29 03:51:00,
2013-06-28 23:56:00,61.8,61.8,29.58,South,169,3.0,5.0,100,0.00,,,1.16,0,Wunderground v.1.15,2013-06-29 03:56:00,